This is the latest recevied weather packets stored in our database for station/object CE2KVL-1. If no packets are shown the sender has not sent any weather packets the latest 10 day(s).
| Time | Temp. | Humidity | Pressure | Rain* | Wind** | Luminosity | Snow |
|---|---|---|---|---|---|---|---|
| 1778032383 | 15.56° C | 10% | - | - | - | - | - |
| 1778031784 | 15.56° C | 10% | - | - | - | - | - |
| 1778030883 | 15.56° C | 10% | - | - | - | - | - |
| 1778027584 | 15° C | 98% | 1021.3 hPa | - | - | - | - |
| 1778026683 | 16.11° C | 99% | 1019.7 hPa | - | - | - | - |
| 1778024283 | 16.11° C | 95% | 1019.7 hPa | - | - | - | - |
| 1778023684 | 16.11° C | 94% | 1019.8 hPa | - | - | - | - |
| 1778020984 | 16.67° C | 90% | 1019.2 hPa | - | - | - | - |
| 1778020683 | 17.22° C | 89% | 1018.8 hPa | - | - | - | - |
| 1778020383 | 17.22° C | 86% | 1018.8 hPa | - | - | - | - |
| 1778020083 | 17.22° C | 85% | 1018.4 hPa | - | - | - | - |
| 1778019783 | 17.22° C | 83% | 1018.4 hPa | - | - | - | - |
| 1778019484 | 17.22° C | 82% | 1018.3 hPa | - | - | - | - |
| 1778018884 | 17.22° C | 78% | 1018.7 hPa | - | - | - | - |
| 1778017983 | 17.78° C | 70% | 1018.1 hPa | - | - | - | - |
| 1778017083 | 17.78° C | 60% | 1017.5 hPa | - | - | - | - |
| 1778015283 | 18.33° C | 60% | 1017.1 hPa | - | - | - | - |
| 1778014983 | 18.33° C | 59% | 1017 hPa | - | - | - | - |
| 1778014683 | 18.33° C | 57% | 1017.3 hPa | - | - | - | - |
| 1778014083 | 18.33° C | 56% | 1017.2 hPa | - | - | - | - |
| 1778013483 | 18.33° C | 54% | 1017.1 hPa | - | - | - | - |
| 1778013183 | 18.33° C | 53% | 1017.2 hPa | - | - | - | - |
| 1778012583 | 18.89° C | 51% | 1016.8 hPa | - | - | - | - |
| 1778012283 | 18.89° C | 51% | 1016.8 hPa | - | - | - | - |
| 1778011983 | 18.89° C | 51% | 1016.7 hPa | - | - | - | - |
* Rain since midnight (hover to see other rain measurements)
** Current wind speed in m/s (hover to see current wind gust speed)